{"data":{"norad_id":66905,"epoch":"2026-09-19T12:51:35.730144Z","epoch_age_seconds":167334,"freshness":"FRESH","line1":"1 66905U 25283AD  26262.53583021  .00021788  00000+0  65411-3 0  9996","line2":"2 66905  53.1588 202.2968 0001081  78.6344 281.4780 15.34399896 45544","mean_motion":15.34399896,"eccentricity":0.0001081,"inclination_deg":53.1588,"raan_deg":202.2968,"arg_perigee_deg":78.6344,"mean_anomaly_deg":281.478,"bstar":0.00065411,"rev_number":4554,"period_min":93.847764442236,"perigee_km":461.96405445366,"apogee_km":463.44304418042,"semimajor_km":6840.840549317,"source":"CELESTRAK","updated_at":"2026-09-21T09:00:36.055175Z"}}